Terminal Aerodrome Forecast
Issued by NWS

Home | Current Version | Previous Version | Text Only | Print | Product List | Glossary On
Versions: 1 2 3 4 5 6 7 8 9 10 11 12 13 14 15 16 17 18 19 20 21
000
FTUS42 KFFC 240520
TAFRYY
TAF
KRYY 240520Z 2406/2506 11005KT P6SM SCT230
     FM240900 13007KT P6SM SCT020
     FM241600 10008KT P6SM SCT035
     FM242000 13010G16KT P6SM SCT050
     FM250100 13010KT P6SM BKN080
      AMD NOT SKED TIL 241200=

USA.gov is the U.S. government's official web portal to all federal, state and local government web resources and services.